CW4658 Weather Reports


time (UTC)temp
C
wind
direction
speed
KPH
gust
KPH
rain 1hr
cm
rain 24hr
cm
rain mn
cm
humidity
%
barometer
mb
20260506020007 11 21 4.8 14.5 0.00 0.00 0.00 80 1007.2
20260506015606 11 28 4.8 14.5 0.00 0.00 0.00 80 1007.3
20260506015205 11 25 6.4 17.7 0.00 0.00 0.00 79 1007.1
20260506014805 11 29 4.8 19.3 0.00 0.00 0.00 79 1007.0
20260506014406 11 25 6.4 19.3 0.00 0.00 0.00 79 1007.0
20260506014006 11 15 4.8 19.3 0.00 0.00 0.00 79 1006.9
20260506013605 12 20 3.2 12.9 0.00 0.00 0.00 79 1006.9
20260506013206 12 28 4.8 16.1 0.00 0.00 0.00 79 1006.8
20260506012406 12 38 6.4 16.1 0.00 0.00 0.00 79 1006.8
20260506012006 12 30 6.4 16.1 0.00 0.00 0.00 80 1006.5
20260506011205 12 14 4.8 12.9 0.00 0.00 0.00 80 1006.7
20260506010805 12 10 4.8 12.9 0.00 0.00 0.00 80 1006.6
20260506010006 12 20 6.4 16.1 0.00 0.00 0.00 79 1006.2
20260506005605 12 27 6.4 16.1 0.00 0.00 0.00 79 1006.4
20260506005206 12 30 4.8 17.7 0.00 0.00 0.00 80 1006.5
20260506004805 12 27 4.8 17.7 0.00 0.00 0.00 79 1006.7
20260506004405 12 32 4.8 17.7 0.00 0.00 0.00 79 1006.7
20260506004006 12 33 4.8 11.3 0.00 0.00 0.00 80 1006.5
20260506003605 12 25 4.8 12.9 0.00 0.00 0.00 80 1006.2
20260506003205 12 21 4.8 14.5 0.00 0.00 0.00 80 1006.2
20260506002805 12 23 4.8 14.5 0.00 0.00 0.00 80 1005.9
20260506002406 12 25 6.4 14.5 0.00 0.00 0.00 80 1005.5
20260506002007 12 21 6.4 16.1 0.00 0.00 0.00 80 1005.9
20260506001606 12 21 6.4 16.1 0.00 0.00 0.00 80 1005.7
20260506000806 12 12 4.8 17.7 0.00 0.00 0.00 80 1006.3
20260506000006 12 24 6.4 17.7 0.00 0.00 0.00 80 1006.4
20260505235605 12 25 4.8 16.1 0.00 0.00 0.00 81 1006.2
20260505235205 12 20 4.8 22.5 0.00 0.00 0.00 81 1006.2
20260505234405 12 18 6.4 22.5 0.00 0.00 0.00 81 1006.2
20260505234006 12 26 6.4 20.9 0.00 0.00 0.00 81 1006.0
20260505233606 12 26 6.4 20.9 0.00 0.00 0.00 81 1005.7
20260505233205 12 22 6.4 14.5 0.00 0.00 0.00 81 1005.8
20260505232806 13 25 6.4 14.5 0.00 0.00 0.00 81 1005.8
20260505232405 13 25 6.4 17.7 0.00 0.00 0.00 81 1005.5
20260505232007 13 25 4.8 17.7 0.00 0.00 0.00 81 1005.6
20260505231206 13 22 4.8 20.9 0.00 0.00 0.00 81 1005.1
20260505230805 13 21 6.4 20.9 0.00 0.00 0.00 81 1005.3
20260505230405 13 22 6.4 20.9 0.00 0.00 0.00 81 1005.1
20260505225606 13 30 8.0 24.1 0.00 0.00 0.00 81 1004.9
20260505225205 13 26 8.0 24.1 0.00 0.00 0.00 81 1004.8
20260505224806 13 17 6.4 19.3 0.00 0.00 0.00 80 1005.0
20260505224006 13 22 8.0 22.5 0.00 0.00 0.00 81 1004.5
20260505223607 13 21 9.7 22.5 0.00 0.00 0.00 80 1004.4
20260505223206 13 25 8.0 20.9 0.00 0.00 0.00 80 1004.6
20260505222806 13 28 6.4 20.9 0.00 0.00 0.00 80 1004.5
20260505222405 14 32 6.4 16.1 0.00 0.00 0.00 80 1004.6
20260505221606 14 27 6.4 16.1 0.00 0.00 0.00 80 1004.7
20260505221206 14 25 8.0 16.1 0.00 0.00 0.00 80 1004.7
20260505220806 14 32 6.4 17.7 0.00 0.00 0.00 80 1004.3
20260505220406 14 25 6.4 17.7 0.00 0.00 0.00 79 1004.0
20260505220007 15 22 4.8 19.3 0.00 0.00 0.00 80 1003.8
20260505215606 15 26 4.8 19.3 0.00 0.00 0.00 80 1004.0
20260505215206 15 25 4.8 16.1 0.00 0.00 0.00 80 1004.2
20260505214806 15 20 4.8 16.1 0.00 0.00 0.00 80 1004.3
20260505214406 15 14 4.8 16.1 0.00 0.00 0.00 80 1004.6
20260505214007 15 23 3.2 12.9 0.00 0.00 0.00 81 1004.5
20260505213606 15 17 4.8 19.3 0.00 0.00 0.00 81 1004.3
20260505213206 15 27 4.8 19.3 0.00 0.00 0.00 80 1004.5
20260505212805 15 19 4.8 19.3 0.00 0.00 0.00 80 1004.3
20260505212406 15 24 6.4 19.3 0.00 0.00 0.00 80 1004.4
20260505211607 15 27 6.4 19.3 0.00 0.00 0.00 80 1003.6
20260505211205 15 26 6.4 19.3 0.00 0.00 0.00 80 1003.6
20260505210806 15 26 6.4 19.3 0.00 0.00 0.00 80 1003.4
20260505210406 15 21 6.4 19.3 0.00 0.00 0.00 80 1003.4
20260505210007 15 24 6.4 19.3 0.00 0.00 0.00 80 1003.3
20260505205606 15 28 4.8 16.1 0.00 0.00 0.00 81 1003.7
20260505205206 15 33 4.8 16.1 0.00 0.00 0.00 81 1003.8
20260505204806 15 30 6.4 16.1 0.00 0.00 0.00 80 1004.1
20260505204406 15 31 6.4 20.9 0.00 0.00 0.00 80 1003.9
20260505204007 15 33 6.4 20.9 0.00 0.00 0.00 80 1003.7
20260505203606 16 25 6.4 14.5 0.00 0.00 0.00 80 1003.9
20260505203206 16 19 4.8 14.5 0.00 0.00 0.00 80 1004.0
20260505202806 16 18 6.4 19.3 0.00 0.00 0.00 80 1004.1
20260505202406 16 26 8.0 19.3 0.00 0.00 0.00 80 1003.9
20260505202006 16 29 6.4 19.3 0.00 0.00 0.00 80 1003.7
20260505201606 16 27 6.4 17.7 0.00 0.00 0.00 80 1003.6
20260505201206 16 16 4.8 16.1 0.00 0.00 0.00 80 1003.5
20260505200406 16 352 4.8 11.3 0.00 0.00 0.00 80 1003.4
20260505195606 16 25 4.8 20.9 0.00 0.00 0.00 79 1003.2
20260505195206 17 13 4.8 11.3 0.00 0.00 0.00 79 1003.1
20260505194806 17 15 4.8 11.3 0.00 0.00 0.00 79 1003.1
20260505194405 17 30 4.8 16.1 0.00 0.00 0.00 79 1003.1
20260505194007 17 31 6.4 16.1 0.00 0.00 0.00 79 1003.2
20260505193206 17 33 6.4 17.7 0.00 0.00 0.00 79 1003.2
20260505192406 17 24 4.8 16.1 0.00 0.00 0.00 79 1003.1
20260505192007 17 16 4.8 20.9 0.00 0.00 0.00 80 1003.1
20260505191606 17 22 4.8 20.9 0.00 0.00 0.00 81 1003.1
20260505191206 17 19 6.4 20.9 0.00 0.00 0.00 80 1003.0
20260505190807 17 25 6.4 19.3 0.00 0.00 0.00 81 1003.0
20260505190406 17 20 6.4 19.3 0.00 0.00 0.00 81 1003.1
20260505185607 17 300 3.2 12.9 0.00 0.00 0.00 81 1003.3
20260505184805 17 344 3.2 11.3 0.00 0.00 0.00 81 1003.2
20260505184406 18 354 4.8 11.3 0.00 0.00 0.00 80 1003.0
20260505184008 18 331 3.2 11.3 0.00 0.00 0.00 80 1002.8
20260505182806 18 352 4.8 9.7 0.00 0.00 0.00 81 1002.7
20260505182406 18 14 3.2 11.3 0.00 0.00 0.00 81 1002.4
20260505181607 18 12 3.2 16.1 0.00 0.00 0.00 80 1001.7
20260505181206 18 12 3.2 16.1 0.00 0.00 0.00 80 1001.9
20260505180806 19 355 3.2 9.7 0.00 0.00 0.00 79 1002.0
20260505180406 19 7 3.2 16.1 0.00 0.00 0.00 78 1002.0
20260505180008 20 26 4.8 16.1 0.00 0.00 0.00 77 1001.9
20260505175606 20 2 4.8 16.1 0.00 0.00 0.00 75 1002.0
20260505174806 22 275 4.8 12.9 0.00 0.00 0.00 72 1001.9
20260505174406 23 245 3.2 9.7 0.00 0.00 0.00 70 1001.7
20260505174008 24 196 3.2 8.0 0.00 0.00 0.00 77 1001.5
20260505173607 24 191 3.2 14.5 0.00 0.00 0.00 79 1001.4
20260505173206 23 196 4.8 14.5 0.00 0.00 0.00 77 1001.3
20260505172806 23 199 4.8 12.9 0.00 0.00 0.00 77 1001.2
20260505172406 23 199 4.8 12.9 0.00 0.00 0.00 77 1001.2
20260505172007 23 196 4.8 11.3 0.00 0.00 0.00 78 1001.2
20260505171607 23 193 3.2 11.3 0.00 0.00 0.00 77 1001.2
20260505171206 23 193 3.2 11.3 0.00 0.00 0.00 78 1001.1
20260505170806 23 189 1.6 4.8 0.00 0.00 0.00 77 1001.1
20260505170406 23 179 3.2 14.5 0.00 0.00 0.00 78 1001.3
20260505170008 23 177 3.2 14.5 0.00 0.00 0.00 78 1001.4
20260505165606 23 184 3.2 8.0 0.00 0.00 0.00 77 1001.5
20260505165207 23 186 1.6 8.0 0.00 0.00 0.00 78 1001.5
20260505164007 23 186 1.6 9.7 0.00 0.00 0.00 78 1001.4
20260505163607 22 192 1.6 8.0 0.00 0.00 0.00 79 1001.4
20260505163207 22 194 1.6 8.0 0.00 0.00 0.00 79 1001.3
20260505162806 22 196 3.2 11.3 0.00 0.00 0.00 79 1001.4
20260505162407 22 196 1.6 11.3 0.00 0.00 0.00 79 1001.5
20260505162007 22 194 1.6 11.3 0.00 0.00 0.00 79 1001.6
20260505161206 22 187 1.6 8.0 0.00 0.00 0.00 78 1001.6
20260505160806 22 184 1.6 8.0 0.00 0.00 0.00 78 1001.5
20260505160406 22 183 1.6 8.0 0.00 0.00 0.00 78 1001.3
20260505153206 22 172 3.2 9.7 0.00 0.00 0.00 77 1001.2
20260505152807 22 184 3.2 12.9 0.00 0.00 0.00 77 1001.0
20260505152008 22 192 4.8 12.9 0.00 0.00 0.00 77 1001.0
20260505151606 22 191 3.2 11.3 0.00 0.00 0.00 77 1000.9
20260505151206 22 192 4.8 11.3 0.00 0.00 0.00 77 1000.8
20260505150806 22 195 4.8 11.3 0.00 0.00 0.00 77 1000.9
20260505140404 21 181 0.0 3.2 0.00 0.00 0.00 79 1001.3
20260505124405 20 351 1.6 9.7 0.00 0.00 0.00 79 1001.9
20260505124006 20 357 1.6 6.4 0.00 0.00 0.00 79 1001.8
20260505123605 20 355 1.6 11.3 0.00 0.00 0.00 79 1001.7
20260505123205 20 313 1.6 11.3 0.00 0.00 0.00 79 1001.7
20260505122405 20 339 1.6 9.7 0.00 0.00 0.00 79 1001.6
20260505122005 20 341 1.6 9.7 0.00 0.00 0.00 79 1001.6
20260505121605 20 325 1.6 9.7 0.00 0.00 0.00 79 1001.5
20260505121204 20 308 0.0 6.4 0.00 0.00 0.00 79 1001.3
20260505120804 20 284 1.6 6.4 0.00 0.00 0.00 79 1001.3
20260505120405 20 249 1.6 6.4 0.00 0.00 0.00 79 1001.4
20260505120006 20 247 1.6 6.4 0.00 0.00 0.00 78 1001.3
20260505115604 20 289 1.6 8.0 0.00 0.00 0.00 79 1001.0
20260505115204 20 335 1.6 8.0 0.00 0.00 0.00 78 1001.0
20260505114405 20 338 1.6 8.0 0.00 0.00 0.00 77 1000.8
20260505114006 20 350 3.2 8.0 0.00 0.00 0.00 77 1000.7
20260505113605 20 349 1.6 8.0 0.00 0.00 0.00 78 1000.7
20260505112804 20 333 1.6 11.3 0.00 0.00 0.00 78 1000.6
20260505112405 20 300 1.6 4.8 0.00 0.00 0.00 78 1000.6
20260505112006 20 349 1.6 8.0 0.00 0.00 0.00 78 1000.6
20260505111605 20 353 1.6 8.0 0.00 0.00 0.00 77 1000.6
20260505110804 20 300 1.6 8.0 0.00 0.00 0.00 77 1000.6
20260505110405 20 300 1.6 8.0 0.00 0.00 0.00 77 1000.6
20260505102005 20 2 1.6 6.4 0.00 0.00 0.00 76 1000.1
20260505101604 20 7 1.6 6.4 0.00 0.00 0.00 76 1000.2
20260505101204 20 16 1.6 6.4 0.00 0.00 0.00 76 1000.2
20260505100805 20 16 1.6 4.8 0.00 0.00 0.00 76 1000.2
20260505100404 20 16 0.0 4.8 0.00 0.00 0.00 76 1000.0
20260505100005 20 343 0.0 3.2 0.00 0.00 0.00 77 1000.0
20260505095604 20 336 0.0 3.2 0.00 0.00 0.00 76 1000.0
20260505095205 20 334 1.6 6.4 0.00 0.00 0.00 76 1000.0
20260505094804 20 334 1.6 6.4 0.00 0.00 0.00 76 1000.0
20260505094405 20 338 1.6 8.0 0.00 0.00 0.00 76 1000.0
20260505094005 20 343 0.0 8.0 0.00 0.00 0.00 75 1000.0
20260505093605 20 281 0.0 6.4 0.00 0.00 0.00 75 1000.1
20260505092804 21 275 1.6 6.4 0.00 0.00 0.00 75 1000.0
20260505092405 21 289 1.6 6.4 0.00 0.00 0.00 75 1000.2
20260505092005 20 9 0.0 4.8 0.00 0.00 0.00 75 1000.2
20260505091604 20 8 1.6 6.4 0.00 0.00 0.00 76 1000.3
20260505091205 20 7 1.6 6.4 0.00 0.00 0.00 77 1000.4
20260505090805 20 358 0.0 6.4 0.00 0.00 0.00 78 1000.3
20260505090405 20 1 0.0 3.2 0.00 0.00 0.00 78 1000.4
20260505090005 20 0 0.0 0.0 0.00 0.00 0.00 78 1000.4
20260505085605 20 0 0.0 0.0 0.00 0.00 0.00 78 1000.4
20260505084405 20 0 0.0 0.0 0.00 0.00 0.00 78 1000.5
20260505084006 20 0 0.0 0.0 0.00 0.00 0.00 77 1000.4
20260505083605 20 0 0.0 0.0 0.00 0.00 0.00 77 1000.5
20260505082804 20 0 0.0 0.0 0.00 0.00 0.00 76 1000.7
20260505081605 20 19 0.0 4.8 0.00 0.00 0.00 76 1000.7
20260505080805 20 30 1.6 4.8 0.00 0.00 0.00 76 1000.7
20260505080404 20 42 0.0 3.2 0.00 0.00 0.00 77 1000.6
20260505075604 20 42 0.0 3.2 0.00 0.00 0.00 77 1000.7
20260505075205 20 42 0.0 3.2 0.00 0.00 0.00 77 1000.7
20260505074805 20 43 0.0 1.6 0.00 0.00 0.00 77 1000.7
20260505074405 20 0 0.0 0.0 0.00 0.00 0.00 77 1000.7
20260505073605 20 42 0.0 3.2 0.00 0.00 0.00 76 1000.7
20260505073205 20 49 1.6 6.4 0.00 0.00 0.00 76 1000.7
20260505072805 20 66 1.6 6.4 0.00 0.00 0.00 77 1000.8
20260505072006 20 166 0.0 6.4 0.00 0.00 0.00 76 1000.4
20260505071604 20 162 0.0 6.4 0.00 0.00 0.00 76 1000.2
20260505071205 20 166 0.0 8.0 0.00 0.00 0.00 76 999.9
20260505070405 20 197 0.0 8.0 0.00 0.00 0.00 76 999.8
20260505070006 20 196 0.0 8.0 0.00 0.00 0.00 76 999.8
20260505065605 20 189 0.0 1.6 0.00 0.00 0.00 76 999.8
20260505064804 20 188 0.0 3.2 0.00 0.00 0.00 75 1000.1
20260505064405 20 188 0.0 3.2 0.00 0.00 0.00 75 1000.2
20260505064005 20 189 0.0 3.2 0.00 0.00 0.00 75 1000.3
20260505063606 20 188 0.0 6.4 0.00 0.00 0.00 75 1000.2
20260505062804 20 187 0.0 6.4 0.00 0.00 0.00 75 1000.3
20260505062405 20 186 0.0 4.8 0.00 0.00 0.00 75 1000.5
20260505062005 20 191 0.0 1.6 0.00 0.00 0.00 75 1000.7
20260505061204 20 192 0.0 4.8 0.00 0.00 0.00 75 1000.8
20260505060805 20 192 0.0 4.8 0.00 0.00 0.00 74 1000.8
20260505060404 20 191 0.0 4.8 0.00 0.00 0.00 74 1000.8
20260505055604 20 187 1.6 6.4 0.00 0.00 0.00 74 1001.0
20260505055205 20 183 1.6 6.4 0.00 0.00 0.00 74 1000.9
20260505054805 21 174 1.6 6.4 0.00 0.00 0.00 73 1000.9
20260505054406 21 169 1.6 6.4 0.00 0.00 0.00 73 1001.0
20260505054007 21 164 0.0 6.4 0.00 0.00 0.00 73 1000.9
20260505053605 21 173 1.6 11.3 0.00 0.00 0.00 73 1000.8
20260505053205 21 181 1.6 11.3 0.00 0.00 0.00 73 1000.9
20260505052805 21 184 1.6 11.3 0.00 0.00 0.00 73 1000.9
20260505052006 21 179 3.2 8.0 0.00 0.00 0.00 73 1000.8
20260505051605 21 181 3.2 8.0 0.00 0.00 0.00 73 1000.9
20260505051205 21 183 3.2 14.5 0.00 0.00 0.00 73 1000.7
20260505050805 21 181 3.2 14.5 0.00 0.00 0.00 73 1000.5
20260505050405 21 178 3.2 14.5 0.00 0.00 0.00 73 1000.7
20260505041605 22 181 6.4 20.9 0.00 0.00 0.00 64 1001.0
20260505041205 22 175 4.8 20.9 0.00 0.00 0.00 65 1000.8
20260505040805 22 175 6.4 16.1 0.00 0.00 0.00 65 1001.0
20260505040006 22 173 6.4 17.7 0.00 0.00 0.00 65 1001.2
20260505035605 22 167 3.2 14.5 0.00 0.00 0.00 64 1001.0
20260505035207 22 173 1.6 11.3 0.00 0.00 0.00 64 1001.5
20260505034805 22 194 1.6 9.7 0.00 0.00 0.00 65 1002.2
20260505034405 22 193 1.6 9.7 0.00 0.00 0.00 64 1002.6
20260505034007 22 188 1.6 9.7 0.00 0.00 0.00 64 1002.5
20260505033606 22 189 1.6 8.0 0.00 0.00 0.00 64 1002.3
20260505033205 22 196 1.6 6.4 0.00 0.00 0.00 65 1002.4
20260505032805 22 196 0.0 6.4 0.00 0.00 0.00 65 1002.4
20260505032006 22 196 0.0 1.6 0.00 0.00 0.00 65 1002.5
20260505031205 22 194 0.0 4.8 0.00 0.00 0.00 64 1002.7
20260505030806 22 194 0.0 4.8 0.00 0.00 0.00 64 1002.6
20260505030405 22 190 0.0 4.8 0.00 0.00 0.00 64 1002.5
20260505030006 22 189 0.0 1.6 0.00 0.00 0.00 64 1002.5
20260505025605 22 189 0.0 1.6 0.00 0.00 0.00 64 1002.6
20260505025206 22 189 0.0 1.6 0.00 0.00 0.00 65 1002.7
20260505024805 22 191 0.0 3.2 0.00 0.00 0.00 64 1002.7
20260505024405 22 192 0.0 3.2 0.00 0.00 0.00 65 1002.6
20260505024006 22 198 0.0 3.2 0.00 0.00 0.00 65 1002.7
20260505023606 22 198 0.0 3.2 0.00 0.00 0.00 63 1002.6
20260505023205 22 198 0.0 3.2 0.00 0.00 0.00 63 1002.6
20260505022806 22 198 0.0 1.6 0.00 0.00 0.00 63 1002.7
20260505022007 22 198 0.0 8.0 0.00 0.00 0.00 63 1002.5
20260505021605 22 196 0.0 8.0 0.00 0.00 0.00 62 1002.5
20260505020805 22 194 1.6 4.8 0.00 0.00 0.00 61 1002.4
20260505020405 22 195 1.6 11.3 0.00 0.00 0.00 61 1002.4